TINTIN B

Last updated on Sat Aug 08 2020 05:33:09 GMT+0000 (Coordinated Universal Time)

1 43217U 18020C 20221.01888635 .36665659 26093-5 47877-3 0 9991 2 43217 97.4319 238.0580 0015584 250.5191 169.7925 16.48446726136854

Satellite not in orbit